Theta_e
339 340 342 343 342 342 344 343 342 343 343 340 339 337 331 329 324 321 321 323 323 328 328 325 332 334 336 336 337 337 337 333 333 334 336 337 338 335 333 332 331 332 332 331 330 330 330 331 331 331 331 332 332 333 334 335 336 339 342 344 345 346 346 346 346 347 349 349 349 350 352 355 357 357
343 342 342 342 341 343 343 341 342 345 345 343 339 337 335 333 326 326 321 322 326 326 330 328 327 336 335 335 335 335 335 334 334 335 336 337 338 335 332 331 331 332 331 329 328 329 329 329 330 330 330 331 331 332 332 333 334 336 338 341 343 344 344 343 344 345 347 348 348 349 351 352 352 354
343 342 341 344 342 344 344 344 343 344 344 342 339 336 336 334 332 328 326 321 326 330 326 329 331 331 334 335 334 334 335 335 335 334 336 337 336 334 334 332 331 330 330 329 329 328 328 328 328 329 330 330 331 331 331 332 333 334 336 338 341 342 343 342 342 344 345 346 347 347 348 349 350 351
343 342 342 343 344 344 344 343 342 342 343 341 338 337 336 335 334 331 327 324 324 330 329 330 332 333 333 335 335 336 335 336 333 335 335 337 335 337 336 333 332 330 329 329 328 327 327 326 327 328 329 329 330 330 330 331 332 333 335 337 338 340 340 340 341 343 343 344 346 347 348 348 349 351
345 345 344 344 344 346 344 342 341 340 341 341 338 337 336 333 334 332 328 324 325 330 334 331 331 333 334 333 334 333 334 335 336 336 337 337 337 337 336 335 332 330 329 328 327 327 326 326 326 327 328 329 329 330 330 330 331 331 333 334 335 337 338 339 340 341 342 343 344 346 347 348 349 352
344 346 345 343 344 345 344 343 342 341 340 339 337 336 335 333 333 334 329 326 325 325 331 331 333 332 333 331 335 333 333 334 335 334 336 337 337 336 336 334 333 330 329 328 327 327 326 325 325 326 327 327 328 329 329 329 329 330 331 332 332 334 335 336 337 339 340 342 343 344 346 347 348 351
344 345 344 341 341 344 343 343 342 342 341 340 338 337 337 335 335 335 334 329 325 325 326 331 330 331 331 331 332 335 335 335 335 334 335 335 336 337 336 334 333 330 328 327 326 326 325 325 325 325 325 325 326 326 326 326 327 327 327 327 328 330 332 333 335 336 338 339 342 343 344 345 346 349
342 341 340 339 340 343 342 341 341 341 341 340 339 338 338 337 337 337 336 334 329 327 324 328 330 331 330 330 333 334 335 334 334 335 335 336 336 336 336 335 333 331 328 327 325 325 325 324 324 323 323 323 323 324 323 324 324 324 325 325 325 326 327 328 330 333 334 336 336 340 342 343 345 346
342 341 340 340 342 343 341 340 340 340 340 340 339 337 338 337 337 336 335 334 333 329 325 326 330 331 330 331 331 331 329 331 333 333 332 333 334 334 335 334 332 329 328 327 326 325 325 325 325 324 324 323 323 323 323 323 323 323 322 321 322 324 325 326 327 329 331 332 332 334 338 341 343 343
343 342 341 342 343 342 340 339 340 341 340 340 339 338 338 338 337 336 336 334 332 330 327 326 326 329 328 328 329 330 330 327 327 328 330 332 333 332 331 332 331 331 330 330 330 328 327 326 326 325 325 324 323 322 322 323 322 321 319 317 319 322 322 322 325 326 327 328 328 330 334 337 340 342
343 342 342 343 343 342 341 340 339 340 341 340 340 340 339 338 337 335 333 333 331 330 327 327 327 326 328 329 326 329 331 330 328 326 326 326 329 329 329 328 329 330 329 329 328 328 327 327 326 324 323 323 323 322 321 321 320 319 319 317 317 317 318 320 321 322 324 327 327 328 328 329 334 339
342 342 342 340 341 343 342 342 341 342 340 340 339 340 339 337 336 333 331 331 330 328 327 326 325 325 326 327 329 329 329 327 327 329 326 323 324 326 327 328 326 326 327 326 328 327 327 327 328 326 326 325 324 322 323 324 324 322 320 319 321 320 318 318 319 320 321 323 324 325 327 328 329 333
342 342 342 341 341 343 341 339 337 337 336 338 337 338 339 337 336 334 332 330 329 328 327 325 326 325 325 326 325 325 325 324 324 326 327 324 325 326 325 327 329 327 325 326 326 326 328 327 327 328 327 327 327 326 327 328 329 326 322 321 322 322 320 319 319 320 320 321 321 322 325 326 327 328
342 341 341 341 339 338 336 334 331 327 326 325 332 336 338 337 338 336 333 331 330 329 327 324 324 323 323 324 325 324 326 327 328 326 325 323 324 324 324 326 328 329 326 324 323 325 328 327 326 326 327 327 328 327 327 328 327 326 323 323 323 323 322 320 319 318 319 320 320 320 321 322 325 325
340 342 342 342 340 338 335 335 331 329 327 326 325 324 324 327 334 335 332 332 332 329 328 327 326 324 323 325 327 326 325 326 325 325 324 324 324 322 319 318 323 328 326 324 323 323 328 328 325 325 326 326 326 327 327 325 325 323 323 324 324 325 325 324 322 320 319 319 320 320 320 320 322 324
340 340 338 338 339 338 338 338 338 335 330 326 325 324 323 323 322 323 329 329 328 328 327 327 327 325 324 325 327 325 325 325 325 325 326 326 324 320 320 319 318 325 328 324 322 321 326 327 325 325 326 327 328 326 325 324 322 322 322 322 322 322 323 325 326 324 321 321 322 323 323 322 323 323
339 335 335 335 335 338 334 332 336 339 339 335 328 325 324 324 322 321 320 321 327 330 328 327 325 326 326 325 325 327 327 329 325 325 324 325 323 322 320 320 320 322 326 323 320 318 323 325 323 323 325 326 326 326 324 324 323 323 322 322 322 322 322 323 324 326 325 323 322 320 321 323 323 323
337 335 334 333 333 335 338 339 339 338 337 336 335 335 335 334 333 328 321 320 318 321 325 324 323 326 327 325 327 329 329 325 324 323 321 322 321 320 320 322 322 323 325 322 319 317 320 324 323 321 324 326 325 327 325 323 323 322 322 322 321 321 322 322 323 324 324 324 323 321 319 319 320 321
337 335 334 335 334 335 336 338 334 333 332 332 331 331 330 331 331 331 330 330 330 329 327 327 327 327 329 328 328 328 327 325 324 323 321 321 321 321 322 322 323 323 325 325 322 316 320 323 321 321 323 324 324 326 324 324 323 323 322 322 322 321 321 322 323 323 323 323 322 321 319 318 318 318
336 335 335 334 334 335 337 325 318 322 325 327 328 328 329 329 328 328 329 324 324 326 327 327 325 324 324 319 324 323 321 323 323 322 323 323 322 319 318 317 318 319 322 323 320 317 317 322 320 320 322 323 322 325 326 323 323 323 322 322 322 320 320 321 323 324 324 323 322 321 319 316 316 316
334 334 334 334 334 336 334 320 315 316 319 327 327 326 325 325 325 325 327 322 318 318 315 313 314 314 314 314 313 312 312 318 320 320 318 317 318 317 314 315 316 317 320 321 321 318 316 320 320 319 320 321 321 322 324 325 324 323 322 321 321 319 318 319 321 323 323 323 322 321 320 317 315 317
334 333 331 332 334 332 331 313 314 312 319 325 325 323 323 322 322 323 324 325 325 320 316 315 314 314 314 314 313 313 312 312 314 320 315 318 318 315 314 312 314 316 318 319 321 319 318 320 320 317 318 319 322 324 326 327 327 324 323 321 319 318 318 317 318 321 322 323 322 321 319 317 317 325
333 334 330 327 327 328 321 309 311 311 317 324 324 323 322 321 321 322 323 322 321 322 322 323 323 322 321 325 325 324 317 316 318 322 320 320 318 314 314 314 313 311 314 318 322 316 315 316 316 317 314 314 319 325 327 328 329 330 330 330 329 320 318 316 315 315 319 321 321 320 318 316 317 332
332 331 331 323 315 312 311 308 306 308 308 320 323 323 321 320 320 322 320 319 318 319 319 320 321 321 322 322 323 324 324 323 325 324 323 321 319 316 314 313 313 310 311 317 320 317 316 316 313 317 315 310 313 322 328 329 331 332 332 331 331 326 322 319 318 315 316 317 318 319 317 315 317 333
330 329 329 328 313 309 308 306 304 303 305 310 320 321 320 320 317 312 316 318 316 318 319 319 319 319 320 321 322 321 321 320 320 321 321 320 320 317 314 313 312 312 314 318 319 320 314 315 313 315 316 318 319 320 324 328 330 330 333 334 332 333 336 334 330 332 319 315 315 315 315 315 314 327
328 328 328 328 316 308 307 305 302 302 305 308 318 319 304 302 304 315 316 317 318 317 317 316 317 317 317 317 319 318 319 317 319 318 318 318 318 318 317 317 315 311 312 320 318 318 316 313 314 314 316 317 318 321 321 324 330 333 335 335 335 334 336 339 337 338 339 333 330 321 324 314 315 317
327 327 327 324 309 305 301 301 301 302 304 308 314 301 301 302 305 311 317 317 315 315 315 315 315 315 315 316 315 315 315 315 317 316 317 317 317 318 319 321 320 318 319 321 322 320 317 315 317 316 315 317 316 319 321 322 325 334 336 336 337 336 340 343 339 338 341 338 336 320 317 314 314 316
325 326 327 320 303 300 296 298 302 305 308 315 300 300 302 306 309 315 316 315 314 313 313 313 313 314 315 315 314 314 314 314 315 315 316 316 317 318 318 320 321 321 320 320 321 320 319 317 317 318 318 318 317 317 318 324 327 330 334 339 337 336 340 343 343 341 342 343 341 336 332 328 325 322
325 310 301 298 300 301 298 300 304 306 304 302 303 304 306 309 314 315 315 314 313 312 311 311 312 313 313 313 314 315 316 316 316 316 315 316 316 317 319 319 320 320 320 321 321 320 319 318 318 319 320 321 320 321 324 324 326 327 329 332 332 340 344 344 343 344 343 343 341 338 333 332 329 326
306 305 305 303 302 303 307 314 317 318 318 309 307 307 308 313 313 313 312 313 311 311 310 310 310 310 312 312 313 314 315 314 312 312 313 313 313 315 316 315 316 320 321 322 320 320 320 320 320 320 320 321 322 322 326 326 326 328 330 330 330 337 341 340 342 343 343 341 341 339 339 339 336 329
319 316 315 316 312 312 312 312 308 311 310 313 313 312 312 312 311 312 312 310 310 310 309 309 309 310 310 312 313 312 311 311 312 313 313 311 311 313 314 313 313 316 320 321 321 321 321 321 322 322 319 320 324 325 328 328 325 328 331 333 334 329 336 339 338 340 339 339 339 338 339 339 337 331
319 318 312 311 318 317 316 315 316 315 315 313 311 310 310 310 310 307 306 306 310 311 310 309 310 310 311 310 309 309 309 309 311 313 312 311 310 312 312 311 312 315 316 318 319 321 323 322 322 323 323 323 322 326 329 328 327 329 329 333 334 334 340 337 338 338 339 337 334 333 335 336 333 332
318 318 317 317 315 315 315 315 315 313 311 311 311 310 309 309 308 309 308 307 307 308 308 308 308 307 308 307 308 307 307 309 309 312 312 312 311 311 311 310 311 313 313 315 317 318 321 323 325 325 322 321 324 326 325 324 329 330 327 333 336 335 338 340 338 338 338 334 334 333 332 334 335 335
317 317 316 315 314 314 313 313 313 312 311 311 310 310 307 307 307 306 306 306 306 306 307 308 307 307 306 306 306 306 306 307 308 310 309 310 311 310 309 309 311 313 315 315 316 317 319 321 323 325 323 321 319 319 320 318 317 321 326 331 333 339 340 340 340 340 337 335 335 331 332 331 331 332
315 315 315 314 313 313 312 312 311 311 310 310 308 308 307 307 307 305 304 304 304 305 306 307 307 306 305 305 306 305 305 306 307 308 310 311 311 309 310 310 311 312 313 313 314 317 319 318 319 320 322 322 318 318 318 318 314 312 316 326 334 336 334 340 337 339 336 337 336 332 331 331 330 331
316 315 313 313 312 312 311 310 310 309 308 308 308 307 305 305 305 303 302 302 304 306 306 306 304 304 305 305 305 305 305 306 307 307 308 309 308 308 310 311 312 312 312 313 315 318 319 318 317 316 315 315 315 316 317 318 315 312 312 321 333 336 339 339 339 336 335 333 334 334 331 329 331 331
314 314 314 311 312 311 310 311 309 310 307 306 306 305 305 304 302 301 302 304 306 306 305 304 304 304 304 304 304 304 305 305 305 306 307 308 307 307 307 309 311 311 311 312 316 318 318 316 317 316 315 314 313 311 313 320 316 312 311 314 322 326 330 334 334 332 332 333 332 335 336 336 333 332
313 313 312 311 311 311 310 309 308 308 307 306 305 305 304 303 301 301 304 306 305 304 304 303 303 303 304 304 303 303 304 305 306 306 306 307 306 305 305 306 308 310 309 310 314 317 318 316 316 315 314 312 311 311 312 318 318 316 310 314 318 321 322 330 333 332 332 334 334 336 340 338 336 336
312 312 311 312 311 311 310 309 308 306 306 305 304 303 302 301 299 301 303 304 304 304 303 302 302 303 303 304 303 303 303 304 304 305 305 305 305 304 304 306 307 309 309 309 312 315 316 317 315 315 314 312 311 313 316 315 313 318 316 306 312 314 313 314 329 332 333 333 335 337 339 343 340 330
311 312 312 312 310 310 309 309 306 305 304 304 303 301 299 297 298 302 303 303 304 304 303 302 302 302 303 303 303 303 303 304 304 304 305 305 305 306 305 305 306 308 308 309 310 312 314 314 315 315 316 317 319 321 320 321 321 322 320 317 306 309 311 314 318 326 331 333 335 334 334 336 334 334
312 311 311 311 310 309 308 306 305 304 304 303 302 298 298 299 301 302 303 302 303 303 302 302 302 303 302 303 303 302 303 303 304 304 305 305 305 305 303 303 306 309 308 308 308 310 312 314 319 316 322 322 323 324 320 315 312 314 316 318 312 308 307 310 314 316 318 321 330 331 330 331 332 334
312 310 310 311 309 308 306 305 304 303 303 300 297 296 299 302 303 297 300 303 304 304 303 301 301 301 302 302 302 302 303 303 303 303 304 304 305 305 304 303 304 307 308 307 307 308 313 317 320 321 322 320 319 315 311 311 312 314 316 319 321 315 311 309 310 311 313 315 323 330 329 329 332 331
310 310 309 308 307 306 305 304 304 303 300 298 297 298 300 301 302 302 302 302 303 302 301 301 301 301 301 302 302 303 303 302 303 303 304 305 305 305 303 302 303 305 307 309 311 313 314 316 318 318 319 317 316 315 311 313 313 315 315 316 318 321 324 316 313 312 312 312 311 310 313 321 329 327
310 309 308 307 306 305 304 303 302 301 299 297 296 298 301 301 302 301 301 301 301 301 301 301 301 301 301 302 302 303 303 302 303 304 304 304 305 305 304 304 304 305 307 310 311 312 313 315 316 316 316 314 315 314 312 313 312 314 314 315 316 317 318 321 322 317 316 314 311 311 310 310 310 310
309 308 308 306 305 304 304 303 301 300 297 296 296 298 299 300 300 301 301 301 302 301 301 301 300 301 301 301 301 301 302 301 302 304 304 305 305 306 306 305 304 305 306 309 311 311 310 312 314 314 314 315 315 314 314 314 312 312 312 313 313 314 316 317 317 316 316 317 313 312 311 311 312 312
Wind_Speed
7 6 8 7 6 6 6 7 7 7 7 7 6 5 7 6 7 9 11 10 9 6 4 7 3 5 5 5 5 5 6 6 6 7 7 7 7 8 8 11 14 14 13 14 14 14 15 15 15 17 17 18 18 18 18 19 19 20 20 20 19 19 18 17 17 16 16 17 19 20 21 22 22 22
6 6 6 6 6 6 6 6 7 6 6 6 6 4 5 6 8 8 10 12 7 8 7 6 7 4 6 6 6 6 7 7 7 7 8 8 8 10 11 13 13 14 14 14 14 14 15 15 16 16 17 18 18 19 19 19 19 20 20 20 20 19 19 18 17 17 17 17 18 20 21 22 21 21
5 6 6 6 6 6 6 6 5 6 6 6 6 6 7 7 7 8 7 12 8 5 8 8 8 9 9 7 7 7 7 7 8 8 8 9 9 12 13 13 13 12 14 14 14 14 14 15 16 16 16 17 19 19 19 20 20 21 21 21 21 20 20 19 18 18 19 18 18 19 20 21 21 21
5 6 7 7 6 5 5 6 6 6 7 7 8 8 8 8 8 7 7 10 13 8 10 9 9 10 10 9 8 9 8 7 11 9 9 9 11 9 9 12 11 12 13 14 14 14 15 15 16 17 17 17 18 20 21 21 22 21 21 20 20 20 20 20 19 19 19 19 19 20 20 21 21 22
6 6 7 7 7 5 5 5 6 6 7 7 8 8 8 9 8 8 8 9 11 10 8 9 8 8 8 9 10 10 9 8 7 8 9 9 9 9 9 9 12 12 12 13 14 14 15 15 16 18 18 18 19 20 21 21 21 21 21 21 20 20 21 21 21 20 20 20 20 20 21 21 21 22
6 5 6 7 7 5 5 5 6 6 6 7 7 8 9 9 9 9 9 10 11 13 10 10 9 9 8 9 9 10 10 10 8 10 10 9 9 8 9 9 9 11 12 13 14 15 16 16 16 18 19 20 19 20 20 21 21 21 21 21 21 20 21 21 21 21 21 21 21 21 21 21 21 22
6 6 6 7 6 4 5 6 6 6 7 6 7 9 8 9 9 9 10 9 12 13 12 11 12 10 9 9 10 10 10 9 9 10 10 9 8 8 9 9 9 11 12 14 15 16 17 17 17 18 19 20 20 21 21 21 21 22 22 21 21 21 21 22 22 22 22 22 22 22 22 21 21 21
6 7 6 7 6 5 6 6 6 6 6 7 7 8 8 8 9 8 8 9 10 12 13 11 11 11 11 11 11 10 10 10 10 9 10 10 9 10 9 10 10 10 12 14 16 17 18 19 18 19 19 20 20 21 21 21 22 21 21 21 21 21 21 21 22 23 23 22 22 22 22 22 22 22
7 6 7 7 6 5 6 6 7 6 8 7 7 8 7 7 7 7 7 8 9 9 12 12 12 12 11 10 11 11 11 10 11 11 12 11 10 11 11 10 10 13 15 18 18 18 18 18 19 19 19 19 20 20 21 22 22 22 22 21 21 21 21 21 22 23 23 23 22 22 23 23 23 22
6 6 7 6 6 6 7 7 7 7 8 7 8 9 8 8 7 7 8 8 8 10 10 11 12 12 13 12 10 11 10 11 12 11 11 11 11 12 12 10 9 8 9 9 10 11 13 16 16 18 19 20 20 21 22 22 23 23 22 22 22 23 22 22 22 23 23 23 23 23 23 23 23 23
7 7 6 6 6 7 7 8 8 8 8 6 8 8 8 8 8 8 9 8 8 9 9 9 11 12 12 12 13 11 11 12 12 12 12 12 12 12 12 14 12 12 13 15 16 16 17 19 18 19 22 23 22 22 23 23 23 24 24 24 23 23 22 22 22 23 23 23 23 23 23 23 23 23
7 7 7 7 7 7 8 8 8 7 7 6 7 6 7 8 8 9 10 9 8 9 9 9 11 11 11 11 11 11 10 11 11 10 12 14 13 13 13 12 14 14 14 16 14 13 15 16 17 17 18 20 21 22 23 24 25 26 26 24 24 23 23 23 23 23 24 24 23 23 23 23 23 23
7 7 7 7 8 8 8 8 7 7 5 5 6 7 7 8 8 8 8 9 9 9 9 10 10 11 11 11 12 11 11 12 14 13 13 14 13 12 12 13 11 13 16 15 17 16 14 17 17 14 13 14 18 19 20 21 22 23 23 23 23 24 24 23 23 24 24 24 24 24 24 24 24 23
8 8 7 7 8 7 8 9 10 11 11 10 9 8 7 8 8 8 8 9 8 9 9 10 11 12 12 12 12 12 13 13 13 14 14 15 13 14 13 10 8 9 14 17 18 15 13 14 17 17 15 14 15 15 15 15 17 17 17 20 22 24 23 22 23 23 24 24 24 24 24 24 24 24
8 7 6 6 6 7 8 9 12 12 11 10 11 12 12 11 9 9 9 9 9 9 9 10 10 12 14 13 13 13 14 13 14 13 14 15 14 14 14 16 12 10 15 15 16 19 13 13 15 15 15 15 15 15 17 19 20 21 21 22 21 19 19 20 22 23 24 24 24 24 24 24 24 24
6 4 4 4 3 4 6 6 6 9 10 10 10 10 11 11 12 12 11 10 9 10 11 11 11 11 12 13 12 14 14 13 13 13 12 11 13 16 16 16 16 14 13 16 18 20 14 11 14 15 15 15 15 16 20 23 22 22 23 23 24 24 23 22 22 23 24 24 25 25 25 25 25 25
4 3 4 4 5 6 7 6 6 6 5 6 8 9 9 11 12 11 11 13 13 11 11 10 11 11 12 13 12 12 12 11 14 14 13 13 15 16 17 16 17 17 14 16 18 20 15 11 15 16 16 16 19 20 20 23 23 24 25 24 24 25 24 23 22 22 23 24 24 24 25 25 25 25
6 5 6 6 7 7 5 4 4 4 4 5 5 5 5 6 6 8 11 11 12 12 10 10 11 12 12 12 12 13 13 13 13 13 13 14 16 17 17 19 18 18 14 15 16 20 18 13 14 16 17 15 17 17 21 23 24 23 23 24 25 25 25 24 23 22 23 24 24 24 24 25 25 25
6 6 6 7 8 7 6 3 2 3 3 4 4 6 7 7 7 7 8 7 6 6 8 9 11 11 11 11 12 13 13 15 13 13 14 16 16 16 17 17 16 17 15 15 13 18 17 13 17 17 16 18 19 20 21 22 23 23 24 24 24 24 24 24 24 23 23 23 24 24 24 24 25 25
5 4 5 6 6 6 6 5 4 2 2 3 5 6 7 7 7 8 5 2 6 9 10 9 10 11 13 13 14 14 14 13 13 13 13 14 14 14 15 16 16 17 16 14 13 15 15 13 17 18 18 20 21 18 18 22 22 22 22 23 24 24 24 23 23 23 23 23 23 24 24 24 24 25
5 4 5 5 5 5 4 5 4 3 2 3 4 6 8 8 9 9 8 8 11 11 10 11 12 14 15 17 17 17 17 13 11 12 13 13 12 13 15 15 14 15 15 13 10 13 18 17 16 18 19 17 19 19 19 19 20 20 20 22 23 23 24 24 22 22 22 23 23 23 24 24 24 25
3 4 6 5 5 4 2 7 3 2 1 3 5 7 8 9 9 9 8 8 6 7 11 13 15 15 15 16 17 17 17 16 10 9 10 12 12 13 13 15 14 15 14 12 8 11 14 17 16 17 17 18 16 16 16 17 17 18 17 20 22 22 23 23 23 22 22 23 23 24 24 24 23 18
4 4 6 7 2 1 4 5 2 2 3 3 5 6 7 8 9 8 8 8 10 11 11 9 9 9 9 9 10 11 11 10 10 9 10 10 10 13 14 14 14 16 12 9 6 9 15 13 17 12 13 14 16 12 14 14 14 14 14 15 15 22 23 23 23 23 23 23 23 24 24 23 22 13
4 4 4 5 6 4 4 3 3 4 3 3 4 5 6 7 9 7 9 9 10 11 10 10 10 11 10 10 10 9 9 8 8 8 8 9 9 10 13 14 14 15 15 10 9 11 14 12 17 13 12 15 15 11 11 13 12 12 13 13 14 16 20 22 20 24 23 23 24 24 24 23 21 13
3 4 4 3 7 7 5 6 5 3 3 3 4 5 6 5 6 7 9 10 11 9 10 10 9 9 9 10 8 8 7 8 7 7 8 9 10 10 11 13 15 15 17 16 14 11 12 14 16 16 15 13 13 14 14 13 12 13 12 12 13 13 11 13 12 13 18 23 23 24 23 23 24 19
3 2 3 3 7 7 6 5 4 3 5 5 5 1 3 5 6 6 8 9 8 8 8 8 9 9 10 10 8 8 8 8 8 9 10 10 11 11 11 12 14 15 15 13 17 16 13 16 13 15 15 14 14 12 14 13 12 11 11 11 13 13 12 12 12 13 12 12 13 18 19 23 22 25
1 2 2 4 9 6 5 4 5 6 6 8 2 3 4 5 8 9 7 7 7 7 8 8 9 10 11 9 8 8 8 9 9 10 10 12 13 13 13 14 14 16 17 19 19 16 14 14 15 15 15 14 14 12 11 13 12 7 8 9 12 13 12 11 12 13 13 13 12 19 19 21 24 25
1 1 1 4 8 5 5 6 6 4 3 2 3 3 4 7 7 6 7 6 7 7 8 8 9 9 8 7 8 8 9 10 11 11 12 13 14 13 13 15 17 17 18 17 15 13 13 14 14 16 16 16 14 10 12 12 12 11 8 5 9 10 10 11 10 11 13 13 12 12 13 12 13 15
2 6 6 5 2 2 4 5 4 5 4 4 4 4 5 8 5 4 5 5 6 7 8 8 7 8 8 8 8 9 10 11 11 11 10 11 13 13 14 15 16 16 13 11 12 13 13 14 15 16 14 11 12 10 9 11 11 11 10 8 7 8 7 8 9 10 11 12 12 13 14 13 13 15
5 3 3 4 4 3 5 5 5 5 1 4 2 5 6 5 3 4 4 5 5 6 6 7 8 8 8 8 8 10 10 9 10 10 11 11 12 11 12 14 15 13 12 12 12 12 14 14 15 14 12 11 11 12 9 8 10 10 8 9 10 6 6 7 8 8 8 9 11 12 12 14 15 14
3 5 2 1 2 4 3 1 4 1 2 4 5 4 3 2 3 3 3 4 5 6 6 7 7 8 8 9 9 8 9 9 9 9 10 11 11 12 13 13 15 14 13 13 13 12 13 14 14 14 13 10 10 13 9 7 12 11 9 7 7 8 6 8 7 7 8 8 9 9 10 10 10 12
2 1 4 5 5 4 4 4 4 3 2 2 3 3 2 2 3 4 6 7 6 6 5 7 7 7 7 8 8 9 9 9 10 9 9 10 13 12 13 13 13 14 15 14 15 16 16 14 14 12 10 9 10 10 7 6 8 6 9 8 9 9 5 8 8 7 10 8 8 8 9 11 13 13
2 3 4 4 4 4 4 5 4 4 3 3 3 3 3 2 3 3 3 4 4 5 5 6 7 7 7 8 8 9 9 9 9 9 9 10 11 12 11 12 13 13 15 17 17 17 15 15 15 13 5 6 5 4 4 7 7 8 10 8 7 7 7 7 9 9 9 10 9 8 8 8 9 11
3 4 5 5 5 4 4 5 5 4 3 3 3 2 2 3 3 3 4 4 4 5 6 6 6 7 7 7 8 9 9 10 9 9 8 9 10 11 11 12 13 13 14 15 17 17 14 14 13 12 1 2 5 7 7 7 8 7 7 8 7 6 7 6 8 9 10 10 11 10 8 8 8 10
4 5 5 5 4 5 5 5 4 3 3 3 3 3 3 3 3 4 4 4 5 5 5 6 6 6 6 7 8 9 9 10 10 9 8 8 9 9 10 12 12 13 14 15 16 15 13 15 15 12 8 2 4 2 10 11 10 9 9 8 8 9 8 7 7 8 10 9 9 10 10 10 10 10
5 5 5 5 5 5 5 4 3 3 3 2 3 3 4 4 3 4 4 4 5 5 5 5 6 6 6 7 8 8 9 10 9 9 9 9 9 10 10 11 12 13 13 13 15 13 11 13 15 13 10 8 8 5 5 10 13 10 8 7 5 4 3 5 7 7 8 8 9 10 12 12 12 11
4 4 4 5 4 4 4 3 3 2 2 2 3 3 4 4 4 4 4 5 4 4 4 6 5 6 6 7 8 8 9 9 9 9 9 9 9 9 10 11 12 12 13 13 13 13 12 12 13 14 11 10 9 9 6 6 7 10 11 7 5 5 4 3 5 6 6 8 9 11 12 10 11 11
5 4 4 3 3 3 3 3 2 2 2 2 3 3 4 4 4 4 4 4 3 4 4 5 5 6 6 7 8 8 9 9 9 9 9 9 9 9 9 11 12 12 12 12 10 11 11 12 12 14 13 11 10 10 10 8 6 8 14 12 9 6 7 3 7 6 5 5 6 7 9 8 9 8
5 4 4 4 3 3 3 2 2 2 2 2 3 3 4 3 3 3 3 3 4 4 5 5 5 6 7 7 8 8 9 9 9 9 10 9 8 9 9 10 11 12 12 11 9 11 11 9 12 13 13 12 12 10 9 8 7 9 8 13 11 8 6 7 2 6 4 5 4 4 1 3 8 14
4 4 4 3 3 3 2 2 2 2 2 2 3 3 3 3 3 3 3 3 4 4 5 5 5 6 6 7 8 8 8 9 9 9 10 10 9 9 9 9 9 11 11 12 12 12 12 13 13 12 12 10 9 9 9 6 5 4 6 10 17 14 9 6 7 2 2 2 3 4 5 6 6 5
4 4 4 4 3 2 2 2 1 2 2 2 2 2 2 2 3 2 3 4 4 5 5 5 5 6 6 7 7 8 9 9 9 10 10 10 9 8 9 11 9 9 11 11 11 11 11 12 14 19 13 9 9 8 4 6 10 10 11 11 12 15 17 15 7 5 2 3 2 2 3 3 5 6
4 4 3 3 3 2 2 2 1 2 2 2 2 2 1 2 0 2 4 3 4 4 4 5 5 5 6 6 7 8 8 9 9 10 10 10 10 9 8 8 9 9 10 11 11 10 10 11 11 11 9 9 10 10 12 11 9 9 10 9 9 9 10 14 17 14 10 6 3 3 2 2 3 3
4 3 3 3 2 2 2 1 1 1 2 2 2 2 2 1 1 2 2 2 3 4 4 5 5 5 6 6 7 7 8 9 9 10 10 10 9 9 9 8 9 10 9 10 9 7 9 9 10 10 9 9 9 9 10 10 10 8 9 11 11 9 8 9 12 16 20 20 14 7 3 2 0 3
4 3 3 3 3 2 2 1 1 1 2 2 1 2 2 1 1 1 2 3 3 4 4 5 5 5 6 6 7 7 7 8 9 9 10 10 9 9 9 9 9 9 9 8 10 9 9 8 8 9 8 11 10 10 10 9 9 8 8 8 9 11 13 10 8 8 15 22 21 15 13 11 8 5
4 3 3 3 2 2 2 1 1 1 1 2 2 2 1 1 1 2 1 2 3 4 4 5 5 5 6 6 7 7 8 9 9 9 9 9 9 9 8 8 8 9 9 8 9 10 10 9 8 7 7 7 7 8 9 9 9 8 10 12 13 11 10 10 11 11 11 12 16 19 17 15 15 16
Wind_Direction
243 244 238 241 249 250 235 238 238 239 237 247 247 238 262 272 276 290 293 293 297 294 269 301 243 220 236 247 254 255 268 275 279 296 295 294 291 292 292 296 294 290 291 297 299 299 299 298 297 298 298 296 295 293 291 289 285 280 275 271 268 266 264 262 261 259 253 245 241 239 237 235 234 234
244 244 244 241 248 247 246 249 252 239 229 225 217 222 242 245 261 269 284 289 285 283 277 267 285 230 237 247 253 257 268 268 263 279 279 282 288 292 286 282 280 284 288 290 290 291 292 295 296 295 294 293 292 290 288 286 283 280 277 272 266 263 261 258 256 255 253 247 240 236 234 233 233 233
244 245 251 244 249 246 249 251 245 239 235 230 222 222 240 247 232 249 259 283 276 256 269 280 280 288 283 270 272 265 262 258 254 270 275 274 275 278 283 274 270 272 277 282 283 285 287 288 291 293 289 288 289 287 286 284 282 279 275 272 268 263 260 257 254 251 250 247 242 236 233 233 232 232
245 250 251 247 248 244 242 250 251 251 249 252 252 253 254 251 248 243 250 261 278 268 280 275 273 273 282 284 274 272 269 257 238 259 265 270 271 272 280 277 268 265 266 270 276 281 284 285 286 287 287 285 284 284 284 283 282 279 277 273 268 264 260 256 252 249 247 245 242 239 236 234 233 232
241 244 249 254 254 240 242 255 259 253 252 254 254 255 256 259 253 244 238 253 271 278 275 284 272 272 269 277 277 278 276 274 267 254 264 267 269 275 276 280 273 263 260 264 271 277 280 282 283 284 284 283 280 280 281 280 278 276 273 271 268 264 260 256 252 248 245 243 241 238 237 235 233 232
245 238 245 253 255 239 241 252 253 254 251 249 251 252 254 260 262 251 251 262 272 280 285 283 280 278 262 263 270 280 281 281 279 274 271 268 265 266 271 274 278 269 266 267 272 276 278 278 279 279 281 282 280 277 275 276 275 273 271 270 268 263 259 255 252 248 245 242 240 237 236 234 232 231
247 241 244 256 261 246 240 245 252 250 248 246 247 248 251 254 255 255 247 255 269 276 280 284 290 285 276 262 274 276 277 277 274 274 272 269 267 260 260 266 273 271 266 269 269 273 277 277 277 277 278 278 277 276 275 273 272 271 270 267 265 262 259 255 250 247 244 241 239 237 234 233 231 230
247 251 255 261 265 257 257 255 251 245 240 241 239 245 246 242 247 248 243 243 258 273 280 284 288 292 292 285 284 282 283 284 279 275 278 275 269 267 264 261 267 272 265 265 267 269 271 274 274 273 273 273 273 272 271 270 268 267 266 264 261 259 257 252 249 246 243 239 237 236 234 231 230 228
251 250 252 262 261 254 258 258 250 245 238 237 241 246 243 242 245 247 243 248 249 261 270 279 283 288 285 282 284 286 289 288 286 285 282 280 277 273 265 265 265 265 258 256 257 258 261 266 269 270 269 268 267 268 267 266 265 263 262 260 258 255 253 250 247 244 242 238 235 234 233 231 229 227
237 243 250 252 249 244 247 258 257 251 248 245 242 245 246 247 248 248 252 256 255 254 263 273 282 285 289 290 286 289 289 288 290 288 285 278 277 283 281 272 273 278 283 285 270 265 261 262 262 268 271 269 267 265 264 263 262 261 258 256 255 253 250 247 244 242 239 237 234 232 231 230 228 226
237 240 245 247 241 240 243 251 256 255 252 248 250 249 252 255 253 258 269 266 260 257 263 266 274 282 283 286 290 290 289 283 282 285 289 290 296 291 289 294 297 297 292 284 274 271 273 274 275 275 274 273 270 266 264 261 258 258 256 254 253 250 246 243 241 239 237 235 232 230 228 228 228 226
241 239 244 249 245 240 243 245 252 254 259 259 263 261 259 263 262 269 276 271 262 266 266 268 280 282 286 286 283 289 288 288 285 287 297 300 301 299 296 293 298 299 296 295 293 286 278 270 260 258 262 263 261 259 259 257 253 253 254 251 250 247 243 240 236 235 234 233 232 229 227 226 226 226
236 239 243 245 245 239 237 241 252 265 274 270 271 269 267 264 263 266 268 272 270 269 272 278 279 282 281 280 286 290 291 293 300 304 302 297 294 291 291 290 292 298 299 295 293 293 295 295 292 289 286 281 280 275 268 270 262 250 247 246 244 243 241 237 233 230 230 230 229 228 227 225 224 223
236 235 236 239 237 236 236 240 241 242 244 242 254 270 276 276 269 268 270 270 268 271 272 274 282 284 283 286 289 292 292 296 298 298 298 297 297 296 288 277 268 291 297 298 298 292 288 287 292 289 279 283 275 275 274 274 275 271 257 245 241 241 239 235 231 227 226 226 226 225 225 225 223 221
246 234 226 249 237 226 236 239 237 242 241 239 239 246 255 263 273 280 276 275 276 276 274 278 276 279 283 285 291 292 297 298 301 299 300 300 300 299 300 299 299 296 299 295 293 291 288 286 280 276 271 276 276 270 270 269 264 257 255 257 256 249 242 237 231 227 224 223 223 223 223 223 223 221
244 234 244 246 248 247 240 250 241 228 227 232 238 240 244 250 250 249 263 272 271 271 277 277 276 281 281 290 291 295 299 302 302 299 298 295 295 296 296 298 295 300 298 296 294 290 288 278 279 279 272 273 279 278 273 270 263 258 257 253 252 250 247 244 236 228 223 221 220 221 220 220 221 220
223 246 294 296 272 255 210 234 249 267 267 224 216 231 241 245 244 246 243 246 259 276 277 275 278 280 288 289 291 296 298 302 298 296 292 293 295 296 296 293 294 297 302 295 290 289 287 289 286 283 283 284 289 285 276 266 258 253 251 249 247 246 244 243 240 231 223 219 218 218 218 218 218 218
238 214 220 244 255 256 244 243 249 268 273 295 297 286 283 287 259 222 216 228 240 248 263 274 279 280 284 286 288 291 293 295 294 297 298 300 296 295 292 293 293 293 294 285 289 287 282 282 284 280 278 280 285 281 274 269 266 258 253 247 244 242 242 241 239 232 224 218 216 216 217 217 217 217
229 221 230 238 250 259 263 271 6 296 303 310 301 294 294 294 296 302 297 276 260 250 254 269 277 286 286 286 288 290 293 296 297 297 296 295 292 292 290 286 285 287 286 281 280 280 286 297 288 282 285 292 291 287 281 269 262 254 248 245 242 239 239 239 237 231 223 217 214 213 215 215 216 216
227 222 235 245 247 250 256 101 74 36 317 295 290 291 291 291 293 294 298 221 271 279 290 292 294 293 294 295 289 289 292 294 293 294 293 292 289 290 292 294 299 295 297 293 288 282 288 288 284 289 294 295 290 285 279 274 263 250 241 238 238 238 237 236 235 229 221 216 213 212 212 213 214 215
221 219 216 231 244 238 238 95 87 76 318 280 285 290 291 292 296 295 294 204 208 229 246 256 262 265 269 269 270 270 267 264 278 290 292 290 298 301 299 297 295 293 298 296 280 280 291 288 291 294 296 289 286 283 279 279 270 254 238 233 232 233 233 233 231 227 220 215 212 210 211 211 212 213
216 209 202 219 232 233 218 105 109 95 263 278 285 289 289 292 293 296 298 299 280 230 227 239 247 253 258 262 264 264 262 263 258 279 282 295 302 294 292 295 297 295 293 286 277 280 274 288 294 294 293 288 274 275 274 276 270 260 244 228 227 228 228 229 227 225 220 215 211 209 208 208 208 211
214 188 192 206 237 281 98 119 141 192 238 277 286 285 288 289 293 299 312 303 301 307 310 309 305 300 287 283 293 295 283 261 251 265 275 289 292 293 294 294 297 294 285 273 287 284 289 295 292 291 296 288 284 274 275 273 269 262 259 248 231 221 224 226 224 221 219 214 210 208 205 206 199 205
197 193 179 158 151 146 140 156 196 223 234 277 280 280 284 296 293 310 306 299 301 303 305 308 308 304 304 299 296 291 287 282 280 272 273 274 277 283 289 291 286 281 282 279 288 286 286 287 291 296 283 286 294 297 289 281 267 261 258 249 246 223 212 219 221 218 215 211 209 206 203 202 191 201
217 188 191 173 134 151 164 214 203 199 201 252 285 281 279 297 334 320 294 298 298 296 302 303 303 304 305 305 295 289 291 293 296 294 284 280 275 276 283 285 282 278 280 279 288 285 287 293 288 294 290 280 274 279 281 276 270 268 256 247 243 234 220 209 212 213 209 211 207 204 202 198 189 197
215 201 165 188 143 167 192 197 167 164 195 206 244 334 35 311 298 285 291 294 298 300 303 302 302 304 306 306 299 296 297 301 302 302 298 291 288 280 276 278 278 281 280 282 291 289 290 291 286 289 288 287 282 271 279 277 270 262 254 249 239 231 223 209 198 208 198 199 207 204 202 194 188 200
186 152 147 123 140 176 173 166 177 204 211 218 262 71 289 264 271 269 279 296 298 300 302 301 299 301 304 304 299 302 306 307 307 304 301 296 291 284 280 279 278 276 279 285 287 287 286 284 287 287 287 285 281 278 273 278 280 269 236 239 228 217 218 208 197 200 202 192 196 188 193 187 192 197
132 161 154 105 135 148 163 182 194 189 232 301 54 275 267 270 266 277 292 291 299 299 297 296 299 298 297 296 301 306 308 305 303 298 296 294 292 289 289 291 290 286 288 288 286 282 281 284 285 286 283 284 282 272 275 275 274 280 275 246 235 218 213 215 202 197 195 195 192 176 187 188 196 196
83 67 77 94 100 130 171 187 206 215 200 200 236 247 267 268 267 284 291 295 300 297 295 294 292 291 296 300 299 302 300 298 296 294 296 296 293 289 291 295 291 287 279 271 280 287 287 286 284 286 281 276 276 268 265 278 284 288 289 284 228 206 204 201 212 202 191 189 191 181 182 183 183 193
78 70 66 61 111 156 166 188 213 245 192 146 251 257 254 264 280 286 294 289 286 288 292 293 295 297 301 301 304 300 294 296 300 304 301 305 303 303 307 309 304 294 285 281 288 289 289 287 286 284 282 277 267 263 260 268 280 279 285 275 258 231 205 189 199 206 185 184 184 182 189 192 191 182
121 105 86 100 168 138 165 273 44 248 202 216 223 238 250 275 278 274 274 290 287 287 290 291 292 295 298 300 300 302 306 300 301 304 302 307 306 311 313 309 303 304 302 297 298 298 294 293 291 286 285 282 269 253 250 246 261 271 268 260 247 227 196 195 197 191 175 172 176 176 182 181 180 179
81 111 111 142 176 171 194 203 232 228 233 249 249 247 257 273 283 284 277 266 267 273 283 286 286 289 297 302 308 308 305 304 305 308 306 313 314 313 314 309 303 309 312 315 317 313 307 299 303 299 284 281 274 262 254 233 248 256 262 259 248 230 222 185 193 186 176 162 159 161 171 175 176 178
164 204 207 223 226 231 241 251 258 237 228 231 237 245 268 283 283 284 297 297 290 291 290 291 297 300 307 308 310 309 308 309 309 310 308 311 318 313 309 301 301 307 313 320 325 322 319 315 312 312 335 350 328 340 301 285 273 277 285 264 223 220 216 190 191 191 170 167 171 161 164 180 184 188
227 241 240 238 238 244 260 265 267 258 248 258 255 251 240 262 290 302 292 287 297 302 293 295 297 306 310 311 317 315 314 314 313 311 302 307 320 316 310 309 307 310 313 318 323 323 319 318 325 329 180 46 18 46 43 18 341 312 297 286 260 234 209 194 196 187 172 183 177 169 167 171 184 190
217 239 248 249 249 249 261 266 259 249 257 266 285 297 298 279 276 282 292 305 308 298 297 298 302 307 313 315 317 316 315 316 313 315 313 307 310 312 314 312 313 314 316 320 322 325 320 330 337 336 342 289 212 103 64 45 2 334 314 281 250 241 219 187 194 178 180 188 181 173 173 178 186 187
247 245 249 249 252 252 249 229 244 255 266 271 290 300 303 305 304 305 305 320 301 300 299 307 310 314 319 317 317 314 313 311 311 316 317 320 320 317 318 319 319 315 316 316 323 322 323 334 341 342 337 351 4 5 22 72 54 349 322 297 302 269 188 179 182 172 178 179 184 182 178 186 188 184
241 238 243 258 244 226 230 231 237 240 274 295 297 303 303 305 315 311 314 293 284 294 309 304 309 321 318 319 315 312 316 317 319 318 317 319 319 319 321 323 324 322 318 317 320 321 329 333 340 348 345 350 8 357 352 346 57 32 357 332 325 2 330 183 165 176 178 181 191 198 202 188 184 180
241 242 229 225 218 230 239 243 240 246 271 291 298 301 296 303 305 301 294 284 304 309 308 307 322 324 325 324 321 322 319 319 319 319 322 321 324 324 325 327 323 324 319 311 309 321 330 338 341 346 354 356 354 352 344 352 351 4 18 5 1 354 2 265 170 183 173 182 188 199 198 192 172 162
247 234 230 239 227 227 232 227 255 265 277 290 299 304 306 303 305 305 304 318 328 321 315 316 331 334 321 322 323 319 320 323 324 328 326 324 320 318 322 332 326 325 323 318 318 328 337 338 342 347 348 352 354 341 329 331 345 341 359 23 23 1 16 325 240 149 154 153 161 159 162 80 106 122
218 231 239 238 230 225 227 216 230 262 280 299 307 310 306 305 306 307 319 330 327 322 312 324 329 325 323 329 324 323 321 321 325 328 329 324 324 326 330 325 314 323 324 325 329 334 342 344 338 343 339 343 326 316 311 309 300 312 339 13 33 39 2 347 352 342 137 112 134 158 135 143 142 135
215 223 222 226 217 211 207 209 233 261 285 298 292 281 294 314 293 329 342 339 325 315 322 330 336 330 331 328 326 324 323 325 328 330 330 325 326 329 327 320 312 334 337 327 328 330 333 328 320 319 326 334 326 304 312 12 22 5 7 9 17 32 31 27 7 358 360 341 40 78 94 135 131 136
222 225 216 212 209 193 204 200 250 275 295 303 299 303 272 253 7 312 280 247 280 302 317 334 338 332 332 330 326 325 323 327 330 330 330 328 329 329 334 332 326 330 339 331 324 318 308 315 321 332 338 345 351 7 20 19 13 10 8 6 3 14 36 43 40 42 41 27 22 82 92 80 84 122
203 207 198 185 183 190 200 185 237 295 306 303 302 306 277 276 272 250 303 330 318 321 339 335 339 334 333 330 329 325 324 331 332 329 329 329 330 329 331 326 321 320 322 325 321 306 320 326 340 340 342 358 356 12 17 11 9 0 8 11 6 357 12 36 42 43 51 50 52 62 24 3 132 171
198 199 187 172 184 172 195 198 239 308 295 278 265 251 274 297 282 302 312 328 325 334 336 335 336 335 333 330 326 326 331 333 327 326 328 327 325 325 325 327 325 321 322 331 335 338 334 333 341 340 349 5 353 4 13 6 8 5 6 7 8 9 13 11 14 27 46 46 37 38 49 60 69 69
193 200 182 176 183 184 182 187 219 264 284 274 254 262 256 259 288 300 309 317 329 333 329 337 336 334 331 331 330 333 335 324 323 330 330 330 331 328 329 328 327 326 329 336 341 344 344 337 338 348 351 350 352 352 2 17 10 359 8 14 14 11 10 8 15 23 32 46 29 34 49 60 66 68